TimeCDT,TemperatureF,Dew PointF,Humidity,Sea Level PressureIn,VisibilityMPH,Wind Direction,Wind SpeedMPH,Gust SpeedMPH,PrecipitationIn,Events,Conditions,WindDirDegrees,DateUTC
12:53 AM,30.9,25.0,79,30.21,10.0,West,9.2,-,N/A,,Clear,280,2013-04-19 05:53:00
1:53 AM,30.9,24.1,76,30.21,10.0,West,9.2,-,N/A,,Clear,280,2013-04-19 06:53:00
2:53 AM,32.0,23.0,69,30.20,10.0,NW,13.8,-,N/A,,Clear,310,2013-04-19 07:53:00
3:53 AM,32.0,21.9,66,30.19,10.0,NNW,15.0,-,N/A,,Clear,330,2013-04-19 08:53:00
4:53 AM,32.0,21.0,64,30.19,10.0,NNW,12.7,-,N/A,,Clear,340,2013-04-19 09:53:00
5:53 AM,30.9,19.9,64,30.21,10.0,NW,8.1,-,N/A,,Clear,310,2013-04-19 10:53:00
6:53 AM,32.0,19.0,59,30.22,10.0,NW,12.7,-,N/A,,Clear,320,2013-04-19 11:53:00
7:53 AM,34.0,19.9,56,30.25,10.0,WNW,8.1,-,N/A,,Clear,300,2013-04-19 12:53:00
8:53 AM,39.9,19.9,45,30.26,10.0,WNW,11.5,-,N/A,,Clear,300,2013-04-19 13:53:00
9:53 AM,46.0,21.9,39,30.25,10.0,WNW,10.4,-,N/A,,Clear,300,2013-04-19 14:53:00
10:53 AM,50.0,23.0,35,30.25,10.0,WNW,9.2,-,N/A,,Clear,300,2013-04-19 15:53:00
11:53 AM,53.1,25.0,34,30.23,10.0,West,13.8,19.6,N/A,,Clear,260,2013-04-19 16:53:00
12:53 PM,57.9,26.1,30,30.20,10.0,West,11.5,23.0,N/A,,Clear,270,2013-04-19 17:53:00
1:53 PM,61.0,23.0,23,30.16,10.0,West,10.4,18.4,N/A,,Clear,280,2013-04-19 18:53:00
2:53 PM,63.0,24.1,23,30.14,10.0,NW,11.5,-,N/A,,Clear,310,2013-04-19 19:53:00
3:53 PM,64.0,24.1,22,30.11,10.0,West,12.7,20.7,N/A,,Clear,270,2013-04-19 20:53:00
4:53 PM,64.0,25.0,23,30.09,10.0,Variable,3.5,16.1,N/A,,Clear,0,2013-04-19 21:53:00
5:53 PM,64.9,26.1,23,30.07,10.0,West,8.1,-,N/A,,Clear,270,2013-04-19 22:53:00
6:53 PM,63.0,23.0,22,30.07,10.0,SW,4.6,-,N/A,,Clear,230,2013-04-19 23:53:00
7:53 PM,54.0,35.1,49,30.07,10.0,South,4.6,-,N/A,,Clear,190,2013-04-20 00:53:00
8:53 PM,48.9,30.9,50,30.07,10.0,South,6.9,-,N/A,,Clear,180,2013-04-20 01:53:00
9:53 PM,46.0,30.0,54,30.09,10.0,South,9.2,-,N/A,,Clear,180,2013-04-20 02:53:00
10:53 PM,44.1,30.9,60,30.07,10.0,South,9.2,-,N/A,,Clear,170,2013-04-20 03:53:00
11:53 PM,48.0,30.9,52,30.06,10.0,South,13.8,-,N/A,,Clear,180,2013-04-20 04:53:00